[[{"header":{"parameterUnit":"m.s-1","parameterCategory":1,"la1":30.2991,"la2":30.254,"lo1":-89.0895,"lo2":-89.0444,"dy":0.0017,"dx":0.0017,"nx":28,"ny":28,"refTime":"2025-04-01T09:00:00:Z","depth":0,"parameterNumber":2,"parameterNumberName":"U-component_of_WINDS"},"data":[0,0,0,0,0,0,0,0,0,0,0,0,0,0,0,0,0,0,0,0,0,0,0,0,0,0,0,0,0,0,0,0,0,0,0,0,0,0,0,0,0,0,0,0,0,0,0,0,0,0,0,0,0,0,0,0,0,0,-5.0153,-5.0155,0,-5.0289,-5.029,-5.0292,-5.0305,-5.0304,-5.0303,-5.0301,-5.0438,-5.0443,-5.0448,0,0,0,0,0,0,0,0,0,0,0,0,0,-4.9905,-4.9909,-5.0153,-5.0155,-5.0157,-5.0288,-5.029,-5.0292,-5.0306,-5.0304,-5.0302,-5.0301,-5.0436,-5.0442,-5.0448,0,0,0,0,0,0,0,0,0,0,0,0,0,-5.0024,-4.9911,-5.0153,-5.0179,-5.0183,-5.0288,-5.029,-5.0293,-5.0306,-5.0304,-5.0302,-5.03,-5.0434,-5.0442,-5.0449,-5.0536,0,0,-5.0472,-5.0475,0,0,0,0,0,0,0,0,-5.0017,-5.0033,-5.0174,-5.0178,-5.0182,-5.0278,-5.0253,-5.0374,-5.0306,-5.0259,-5.0301,-5.0299,-5.0386,-5.0398,-5.0427,-5.0543,-5.0549,-5.0472,-5.0477,-5.048,-5.0482,0,0,0,0,0,0,0,-5.0009,-5.0027,-5.0207,-5.0176,-5.0181,-5.0184,-5.0198,-5.0276,-5.0333,-5.0263,-5.0264,-5.028,-5.0388,-5.042,-5.0431,-5.0551,-5.0472,-5.0479,-5.0483,-5.0486,-5.0744,-5.0746,0,0,0,0,0,0,-4.9996,-5.002,-5.0202,-5.0211,-5.0093,-5.019,-5.0206,-5.0249,-5.0332,-5.0343,-5.0282,-5.0281,-5.0409,-5.0422,-5.0436,-5.0542,-5.048,-5.0487,-5.0491,-5.0741,-5.0744,-5.0747,0,0,0,0,0,0,-4.999,-5.0012,-5.0197,-5.0116,-5.014,-5.0197,-5.0245,-5.0253,-5.0285,-5.0346,-5.0356,-5.0304,-5.0408,-5.0425,-5.0511,-5.0547,-5.049,-5.0497,-5.0738,-5.0742,-5.0746,-5.0757,0,0,0,0,0,0,-4.9983,-5.001,-5.0044,-5.0117,-5.0144,-5.0271,-5.0247,-5.0257,-5.0298,-5.0297,-5.037,-5.038,-5.0407,-5.05,-5.0518,-5.0556,-5.0503,-5.0735,-5.074,-5.0744,-5.0753,-5.076,-5.0766,0,0,0,0,0,-4.9974,-5.0042,-5.0046,-5.0068,-5.0188,-5.0273,-5.0288,-5.0319,-5.0301,-5.0335,-5.0375,-5.0378,-5.0541,-5.0509,-5.053,-5.057,-5.0733,-5.0739,-5.0744,-5.0751,-5.0759,-5.0766,0,0,0,0,0,0,-4.9971,-5.0052,-5.0057,-5.015,-5.0205,-5.0275,-5.0319,-5.0327,-5.0387,-5.0384,-5.0419,-5.0435,-5.0519,-5.0554,-5.0517,-5.0659,-5.0635,-5.0645,-5.0633,-5.0642,-5.0648,-5.0637,-5.0509,0,0,0,0,0,-4.9981,-5.0044,-5.0111,-5.0187,-5.0214,-5.0262,-5.03,-5.0319,-5.0377,-5.0399,-5.0445,-5.05,-5.0564,-5.0605,-5.0667,-5.0759,-5.0775,-5.0798,-5.0804,-5.0809,-5.0816,-5.0866,-5.0877,-5.0765,-5.0765,-5.0764,0,0,-5.0003,-5.0055,-5.0092,-5.0187,-5.0232,-5.0295,-5.0281,-5.0349,-5.0396,-5.041,-5.0493,-5.0529,-5.0593,-5.0682,-5.0723,-5.0713,-5.0851,-5.0816,-5.082,-5.0824,-5.0873,-5.0884,-5.0893,-5.0768,-5.0768,-5.0767,0,0,-5.0074,-5.012,-5.0188,-5.0233,-5.03,-5.0332,-5.0348,-5.0418,-5.0442,-5.0527,-5.0538,-5.0595,-5.0704,-5.0749,-5.0786,-5.0875,-5.0879,-5.0894,-5.0927,-5.0975,-5.0984,-5.0992,-5.1022,-5.1032,-5.0902,-5.0902,-5.0902,0,-5.0092,-5.0188,-5.0221,-5.0289,-5.033,-5.0346,-5.0414,-5.0456,-5.054,-5.0568,-5.0556,-5.0693,-5.0737,-5.0836,-5.0858,-5.0888,-5.0907,-5.0885,-5.098,-5.0989,-5.0997,-5.1025,-5.1037,-5.0903,-5.0903,-5.0903,-5.0903,0,-5.0206,-5.0273,-5.0319,-5.04,-5.0447,-5.0514,-5.0557,-5.06,-5.0615,-5.0648,-5.0734,-5.0788,-5.0861,-5.0886,-5.0902,-5.0988,-5.0979,-5.0973,-5.095,-5.1008,-5.1035,-5.1047,-5.0905,-5.0905,-5.0904,-5.0904,0,0,-5.0277,-5.0376,-5.0392,-5.0429,-5.0505,-5.0557,-5.0625,-5.0697,-5.0733,-5.0791,-5.0848,-5.094,-5.0936,-5.0978,-5.0999,-5.1042,-5.1106,-5.1031,-5.1033,-5.1041,-5.1202,-5.1204,-5.1217,-5.1111,-5.1113,-5.1115,-5.1196,0,-5.0355,-5.0477,-5.0508,-5.0612,-5.0673,-5.069,-5.0749,-5.0802,-5.0835,-5.0891,-5.0927,-5.0991,-5.0981,-5.1007,-5.105,-5.1089,-5.1139,-5.1084,-5.1162,-5.1165,-5.1143,-5.1231,-5.1234,-5.1308,-5.1207,-5.1209,-5.1211,0,-5.0462,-5.0522,-5.0631,-5.0699,-5.0726,-5.0779,-5.0847,-5.0901,-5.0961,-5.0982,-5.1029,-5.1046,-5.1117,-5.1092,-5.1189,-5.1151,-5.1185,-5.121,-5.1213,-5.122,-5.1189,-5.1238,-5.1333,-5.1343,-5.1228,-5.1227,-5.1226,0,-5.05,-5.0609,-5.0688,-5.0719,-5.0801,-5.0837,-5.0873,-5.0931,-5.0972,-5.1032,-5.1059,-5.1126,-5.1162,-5.1213,-5.1248,-5.1226,-5.1342,-5.1319,-5.1359,-5.1358,-5.1381,-5.1378,-5.148,-5.1407,-5.1407,-5.1406,-5.1406,0,-5.0583,-5.0648,-5.0706,-5.0755,-5.0828,-5.0865,-5.0937,-5.0973,-5.1025,-5.108,-5.1099,-5.1151,-5.1194,-5.1251,-5.1279,-5.1354,-5.1371,-5.1389,-5.1395,-5.1386,-5.1383,-5.1407,-5.1401,-5.1409,-5.1409,-5.1408,-5.1408,0,-5.0637,-5.0679,-5.0766,-5.0836,-5.0855,-5.0907,-5.0967,-5.1014,-5.1048,-5.1117,-5.1136,-5.1189,-5.1257,-5.1297,-5.1383,-5.1401,-5.1484,-5.1489,-5.1464,-5.1466,-5.1503,-5.1498,-5.1621,-5.1638,-5.1556,-5.1557,-5.1557,0,-5.0686,-5.0737,-5.0813,-5.0851,-5.0887,-5.0949,-5.0991,-5.1029,-5.1072,-5.1145,-5.1183,-5.1252,-5.131,-5.1418,-5.1463,-5.1529,-5.1534,-5.1573,-5.1544,-5.1533,-5.1532,-5.1528,-5.1532,-5.1577,-5.1578,-5.1578,-5.1579,0,-5.0767,-5.0785,-5.0845,-5.0913,-5.0962,-5.1017,-5.1071,-5.1102,-5.1149,-5.1196,-5.1266,-5.131,-5.1398,-5.1466,-5.1536,-5.1572,-5.1583,-5.1588,-5.16,-5.159,-5.1572,-5.158,-5.1474,-5.1584,-5.1584,-5.1583,-5.1583,-5.1583,-5.0819,-5.0864,-5.0925,-5.0991,-5.1036,-5.1086,-5.1134,-5.1174,-5.1233,-5.1308,-5.1327,-5.14,-5.1459,-5.1553,-5.1591,-5.1649,-5.1642,-5.166,-5.1665,-5.1668,-5.1668,-5.1565,-5.1662,-5.1662,-5.1662,-5.1661,-5.1661,0,-5.09,-5.094,-5.1,-5.1075,-5.1127,-5.1134,-5.1195,-5.1237,-5.1301,-5.1356,-5.1412,-5.1492,-5.1558,-5.1609,-5.1677,-5.1713,-5.172,-5.1729,-5.1726,-5.1734,-5.1671,-5.1652,-5.1723,-5.1723,-5.1723,-5.1723,-5.1723,-5.1723,-5.0948,-5.1024,-5.105,-5.1149,-5.1189,-5.126,-5.1294,-5.134,-5.1384,-5.1472,-5.1528,-5.1561,-5.1614,-5.1686,-5.1747,-5.176,-5.1783,-5.1792,-5.1805,-5.1745,-5.1738,-5.1732,-5.1715,-5.1797,-5.1797,-5.1863,-5.1864,-5.1864]},{"header":{"parameterUnit":"m.s-1","parameterCategory":1,"la1":30.2991,"la2":30.254,"lo1":-89.0895,"lo2":-89.0444,"dy":0.0017,"dx":0.0017,"nx":28,"ny":28,"refTime":"2025-04-01T09:00:00:Z","depth":0,"parameterNumber":3,"parameterNumberName":"V-component_of_WINDS"},"data":[0,0,0,0,0,0,0,0,0,0,0,0,0,0,0,0,0,0,0,0,0,0,0,0,0,0,0,0,0,0,0,0,0,0,0,0,0,0,0,0,0,0,0,0,0,0,0,0,0,0,0,0,0,0,0,0,0,0,5.773,5.773,0,5.7818,5.7819,5.782,5.7793,5.7791,5.779,5.7788,5.7876,5.788,5.7884,0,0,0,0,0,0,0,0,0,0,0,0,0,5.7537,5.754,5.7729,5.7731,5.7732,5.7818,5.7819,5.782,5.7794,5.7791,5.7789,5.7787,5.7875,5.7879,5.7884,0,0,0,0,0,0,0,0,0,0,0,0,0,5.7622,5.7541,5.7729,5.7729,5.773,5.7818,5.7819,5.7821,5.7794,5.7791,5.7789,5.7786,5.7873,5.7879,5.7885,5.7978,0,0,5.7904,5.7906,0,0,0,0,0,0,0,0,5.7617,5.7629,5.7728,5.7729,5.773,5.7792,5.7783,5.7873,5.7795,5.777,5.7788,5.7785,5.785,5.7858,5.788,5.7982,5.7986,5.7904,5.7908,5.791,5.7912,0,0,0,0,0,0,0,5.7611,5.7625,5.7764,5.7729,5.7731,5.7724,5.7733,5.78,5.7824,5.7772,5.777,5.7781,5.785,5.7875,5.7882,5.7987,5.7904,5.7909,5.7913,5.7915,5.8172,5.8175,0,0,0,0,0,0,5.7605,5.7621,5.7762,5.7767,5.7666,5.773,5.774,5.7775,5.7823,5.7828,5.7783,5.7779,5.7866,5.7875,5.7885,5.7999,5.791,5.7916,5.792,5.8169,5.8172,5.8176,0,0,0,0,0,0,5.7601,5.7618,5.7758,5.7693,5.7711,5.7736,5.7775,5.7778,5.7802,5.7832,5.7836,5.7804,5.7864,5.7877,5.7956,5.8002,5.7919,5.7924,5.8165,5.817,5.8174,5.8226,0,0,0,0,0,0,5.7596,5.7617,5.7652,5.7694,5.7714,5.7827,5.7778,5.7782,5.7813,5.7809,5.7853,5.7857,5.7863,5.7947,5.7962,5.8009,5.7929,5.8161,5.8167,5.8173,5.8221,5.8232,5.8242,0,0,0,0,0,5.7589,5.7662,5.7654,5.7671,5.776,5.783,5.7841,5.7847,5.7817,5.7853,5.7873,5.7856,5.7994,5.7955,5.7972,5.8021,5.8158,5.8165,5.8172,5.8216,5.823,5.8242,0,0,0,0,0,0,5.7623,5.7668,5.7659,5.7748,5.7786,5.7825,5.7871,5.7861,5.7907,5.7901,5.7906,5.7916,5.7997,5.8017,5.7973,5.8115,5.8072,5.8082,5.8099,5.8113,5.8123,5.8117,5.7934,0,0,0,0,0,5.7641,5.7695,5.7731,5.7807,5.7826,5.7846,5.7876,5.7878,5.7916,5.7932,5.7957,5.7994,5.8046,5.808,5.813,5.8223,5.8233,5.8265,5.8276,5.8285,5.8294,5.8347,5.8363,5.8199,5.8199,5.8199,0,0,5.7679,5.771,5.7744,5.7814,5.7844,5.79,5.7859,5.7919,5.7961,5.794,5.8018,5.8037,5.8079,5.8167,5.8206,5.8186,5.8342,5.8294,5.8301,5.8305,5.8356,5.8372,5.8385,5.8204,5.8203,5.8202,0,0,5.7777,5.7805,5.7872,5.7903,5.7948,5.7961,5.7978,5.8019,5.8032,5.811,5.8096,5.8146,5.8235,5.8266,5.8294,5.8406,5.8393,5.8422,5.8479,5.853,5.8543,5.8555,5.8596,5.8611,5.8431,5.8431,5.8431,0,5.7818,5.7902,5.7908,5.7971,5.8003,5.7988,5.8057,5.8086,5.8145,5.8167,5.8143,5.8257,5.8284,5.8379,5.8407,5.8429,5.8449,5.8417,5.8541,5.8552,5.8563,5.8603,5.8619,5.8435,5.8434,5.8434,5.8434,0,5.7952,5.8011,5.8059,5.8119,5.8156,5.8221,5.8237,5.8274,5.8272,5.8288,5.8368,5.84,5.8457,5.848,5.8478,5.8576,5.8562,5.8539,5.8496,5.8582,5.862,5.8635,5.844,5.8438,5.8437,5.8436,0,0,5.8073,5.8136,5.8154,5.8182,5.8231,5.8277,5.8342,5.8399,5.8432,5.8473,5.8528,5.8605,5.8585,5.8617,5.8619,5.8664,5.8753,5.8636,5.8637,5.8658,5.8865,5.8883,5.89,5.8744,5.8747,5.875,5.8862,0,5.8176,5.8292,5.83,5.8404,5.846,5.8448,5.8504,5.8541,5.8558,5.8607,5.8625,5.868,5.8649,5.8668,5.8712,5.8733,5.8795,5.8725,5.8796,5.8799,5.8788,5.8919,5.8938,5.9042,5.8876,5.8879,5.8881,0,5.8312,5.836,5.8471,5.8515,5.8538,5.8589,5.8644,5.869,5.8732,5.8741,5.8778,5.8774,5.8841,5.8795,5.8889,5.8841,5.887,5.8885,5.8889,5.8897,5.8846,5.8932,5.9075,5.9092,5.8904,5.8902,5.89,0,5.8392,5.8484,5.8562,5.8586,5.8639,5.8676,5.8699,5.8738,5.8773,5.882,5.8842,5.8896,5.8925,5.8967,5.8978,5.8943,5.9072,5.9026,5.9082,5.9082,5.911,5.9108,5.9261,5.9127,5.9127,5.9126,5.9126,0,5.8508,5.8576,5.8599,5.8648,5.8725,5.8733,5.8809,5.883,5.8865,5.8918,5.8909,5.8959,5.897,5.9021,5.903,5.9107,5.912,5.9129,5.9131,5.9131,5.913,5.9151,5.9145,5.913,5.9129,5.9129,5.9128,0,5.861,5.8628,5.8714,5.8757,5.877,5.8825,5.8862,5.8909,5.8925,5.8992,5.9008,5.9033,5.9094,5.9109,5.918,5.9186,5.9278,5.9271,5.9264,5.9264,5.9319,5.9314,5.9492,5.9517,5.9365,5.9367,5.9368,0,5.8684,5.8736,5.8787,5.8822,5.8848,5.8904,5.894,5.895,5.8988,5.9041,5.9082,5.9142,5.919,5.9287,5.9312,5.9367,5.9363,5.9422,5.9371,5.937,5.9366,5.9363,5.9369,5.9432,5.9433,5.9435,5.9436,0,5.8812,5.8819,5.8872,5.8928,5.8971,5.9016,5.9058,5.9087,5.9104,5.9146,5.9209,5.9247,5.9321,5.9381,5.9437,5.9461,5.9452,5.9451,5.9467,5.9468,5.9463,5.9468,5.9292,5.9447,5.9446,5.9445,5.9445,5.9444,5.8904,5.8951,5.8995,5.9054,5.9087,5.9128,5.9174,5.9197,5.925,5.9312,5.9315,5.9383,5.9425,5.95,5.9527,5.9581,5.9563,5.9586,5.9592,5.9598,5.9604,5.9453,5.9591,5.9591,5.959,5.959,5.959,0,5.9034,5.9062,5.9116,5.9177,5.9224,5.9212,5.9258,5.9298,5.9359,5.9399,5.9448,5.9521,5.958,5.9609,5.9668,5.9705,5.9702,5.972,5.9718,5.9724,5.9615,5.9596,5.9721,5.9721,5.9721,5.9721,5.9721,5.9721,5.9107,5.9187,5.9199,5.9296,5.9323,5.9392,5.942,5.9457,5.949,5.9572,5.9621,5.9641,5.9677,5.9738,5.9792,5.9799,5.9821,5.9842,5.9847,5.9745,5.9731,5.9719,5.9701,5.9846,5.9846,5.9951,5.9952,5.9953]}]]